カタログに戻る

SL-8 R/B

運用中PO
NORAD 20805·ROCKET BODY·🇷🇺 Russia

打ち上げ Sep 14, 1990 から Plesetsk Cosmodrome

Loading…

次のパス (今後24時間)

TLE

最新Source: Space-Track

元期: Sep 14, 2026, 11:10 UTC

1 20805U 90083B   26257.46527959  .00000152  00000-0  14005-3 0  9995
2 20805  82.9322  73.5364 0029754 322.8619  65.6369 13.76247979807442

AllMySatでSL-8 R/Bをリアルタイム追跡

Download on the App Store